sat.trackr.live / text

‹ back to catalog

STARLINK-30322

NORAD 57670 · 2023-124H

PAYLOAD ACTIVE UNKNOWN

§ Identity

Operator
Country
US
Launch date
2023-08-22
Launch site
AFWTR
Launch vehicle
Mass (kg)
RCS (m²)

Purposes: comms

External: N2YO · Heavens-Above · Gunter

§ Orbital elements

Epoch: 2026-05-25T04:29:10.548096Z

Period
94.11 min
Inclination
53.1595°
Eccentricity
0.0000982
Mean motion
15.30181326 rev/d
Perigee alt
474.6 km
Apogee alt
475.9 km
Semi-major
6,853.4 km
B*
-1.0243e-5
RAAN
211.7438°
Arg perigee
74.4326°
Mean anomaly
285.6783°
Rev number
15,527

§ Raw data

STARLINK-303221 57670U 23124H   26145.18692764 -.00000662  00000+0 -10243-4 0  99972 57670  53.1595 211.7438 0000982  74.4326 285.6783 15.30181326155275

JSON: /api/v1/satellites/57670 · /tle

For live sub-satellite position, see the globe view (requires WebGL).

§ Visibility from observer

Set your observer location to see the next 7 days of passes ≥ 10°. The values pass through the URL so the page stays shareable.

No JS? Fill the form by hand. The geolocation button needs JavaScript.